Regional Weather Roundup
Issued by NWS

Home | Current Version | Previous Version | Graphics & Text | Print | Product List | Glossary On
Versions: 1 2 3 4 5 6 7 8 9 10 11 12 13 14 15 16 17 18 19 20 21 22 23 24 25 26 27 28 29 30 31 32 33 34 35 36 37 38 39 40 41 42 43 44 45 46 47 48 49 50
000
ASUS43 KMKX 030721
RWRWI

WISCONSIN REGIONAL WEATHER ROUNDUP
NATIONAL WEATHER SERVICE MILWAUKEE/SULLIVAN WI
200 AM CDT FRI JUL 03 2015

NOTE: "FAIR" INDICATES FEW OR NO CLOUDS BELOW 12,000 FEET WITH NO
SIGNIFICANT WEATHER AND/OR OBSTRUCTIONS TO VISIBILITY.

WIZ001-002-006>008-014>016-023>028-030800-
NORTHWEST WISCONSIN

CITY           SKY/WX    TMP DP  RH WIND       PRES   REMARKS
SUPERIOR ARPT  PTCLDY    60  56  86 SW7       29.93S
ASHLAND        CLEAR     62  55  77 SW7       29.94S
HAYWARD        CLEAR     53  50  89 CALM      29.97S
SIREN          CLEAR     61  55  79 SW6       29.96F
CUMBERLAND     CLEAR     55  54  94 CALM      29.98S
RICE LAKE      CLEAR     56  55  95 CALM      29.99F FOG
CHETEK         CLEAR     56  55  98 CALM      29.98S
LADYSMITH      CLEAR     57  55  92 CALM      30.00S
EAU CLAIRE     CLEAR     57  56  96 CALM      29.98S FOG
MENOMONIE      CLEAR     58  56  95 CALM      29.99S
NEW RICHMOND   CLEAR     56  55  96 CALM      29.98F
OSCEOLA        CLEAR     57  57 100 CALM      30.00S
$$

WIZ003>005-009-010-017-018-030800-
NORTH CENTRAL WISCONSIN

CITY           SKY/WX    TMP DP  RH WIND       PRES   REMARKS
MANITOWISH WTR CLEAR     56  55  93 W3        29.98S
ARBOR VITAE    CLEAR     57  54  89 S5        29.98F
WOODRUFF       CLEAR     57  54  89 S5        29.98F
RHINELANDER    CLEAR     58  51  78 SW7       30.00F
EAGLE RIVER    CLEAR     57  50  77 SW3       29.98F
LAND O LAKES   CLEAR     52  52  98 CALM      29.99S
PHILLIPS       CLEAR     57  52  83 SW3       29.98F
TOMAHAWK       CLEAR     52  50  92 CALM      30.00F
MEDFORD        FAIR      56  51  83 S3        30.00S
MERRILL        CLEAR     50  50 100 CALM      30.00F FOG
$$

WIZ029-030-035-036-043>047-030800-
CENTRAL WISCONSIN

CITY           SKY/WX    TMP DP  RH WIND       PRES   REMARKS
WAUSAU         CLEAR     55  52  89 SE3       29.99F
MOSINEE        CLEAR     54  50  87 CALM      30.01F
MARSHFIELD     CLEAR     56  49  77 CALM      30.00F
STEVENS POINT  CLEAR     49  48  94 CALM      30.01S
WAUPACA        CLEAR     52  51  97 CALM      30.01S
WAUTOMA        CLEAR     50  50 100 CALM      30.01F
WISC RAPIDS    CLEAR     57  46  66 S6        30.01F
CAMP DOUGLAS   FOG       48  48 100 SE2       29.99S VSB 1
$$

WIZ011>013-019>022-031-037>040-048>050-030800-
NORTHEAST WISCONSIN

CITY           SKY/WX    TMP DP  RH WIND       PRES   REMARKS
ANTIGO         CLEAR     54  49  84 S3        30.01F
SHAWANO        CLEAR     57  50  78 CALM      29.99F
OCONTO         CLEAR     54  51  90 SW3       29.99S
STURGEON BAY   CLEAR     54  41  62 S9        30.01S
GREEN BAY      CLEAR     54  51  90 CALM      30.00F
MANITOWOC      CLEAR     51  49  92 MISG      30.01S
APPLETON       CLEAR     57  48  72 S5        30.01S
CLINTONVILLE   CLEAR     50  46  87 CALM      30.00S
OSHKOSH        PTCLDY    55  47  74 SW3       30.00S
$$

WIZ032>034-041-042-053>061-030800-
SOUTHWEST WISCONSIN

CITY           SKY/WX    TMP DP  RH WIND       PRES   REMARKS
LA CROSSE      PTCLDY    58  55  90 SE5       29.99F
SPARTA         PTCLDY    47  46  95 CALM      30.01S
VIROQUA        PTCLDY    57  52  81 CALM      30.01S
BOSCOBEL       MOCLDY    54  52  93 CALM      30.00S
PRAIRIE DU CHI MOCLDY    55  53  93 CALM      29.99F
PLATTEVILLE    CLOUDY    57  52  82 E6        30.00S
$$

WIZ056-057-062-063-064-067-068-030800-
SOUTH CENTRAL WISCONSIN

CITY           SKY/WX    TMP DP  RH WIND       PRES   REMARKS
REEDSBURG      PTCLDY    52  51  99 CALM      30.00S
BARABOO/DELLS  PTCLDY    51  47  86 CALM      30.00F
LONE ROCK      MOCLDY    53  51  93 CALM      30.01S
MINERAL POINT  MOCLDY    59  50  72 E3        30.00S
MADISON        MOCLDY    57  47  69 SE3       30.00F
MIDDLETON      MOCLDY    52  51  97 CALM      30.01F
WATERTOWN      PTCLDY    51  49  95 CALM      30.00F
MONROE         MOCLDY    54  52  94 E7        29.99F
JANESVILLE     MOCLDY    55  52  88 CALM      29.99F
$$

WIZ051-052-058>065-066-070>072-030800-
SOUTHEAST WISCONSIN

CITY           SKY/WX    TMP DP  RH WIND       PRES   REMARKS
MILWAUKEE      PTCLDY    54  47  77 CALM      30.00F
WAUKESHA       PTCLDY    50  45  81 CALM      30.01F
MILWAUKEE/TIMM PTCLDY    52  45  76 CALM      30.01F
RACINE         PTCLDY    56  47  71 CALM      30.01F
BURLINGTON     MOCLDY    48  47  97 CALM      30.00F
KENOSHA        MOCLDY    53  47  79 CALM      30.00F
FOND DU LAC    PTCLDY    52  48  86 S3        30.00F
SHEBOYGAN      CLEAR     49  47  93 CALM      30.00F
WEST BEND      PTCLDY    50  46  87 CALM      30.00F
JUNEAU         PTCLDY    54  47  77 CALM      30.02F
$$

LSZ147-162-030800-
LAKE SUPERIOR

STATION/POSITION TIME  TEMP    WIND        PRES    WAVE
                       AIR SEA DIR/SP/G            HT/PER
                 (UTC) (F)     (DEG/KT/KT) (MB)    (FT/S)
W MID LAKE BUOY  0650   48 38  220/ 12/ 12 1012.3R   1/ 3
DEVILS ISLAND    0700   65     230/ 14/ 15 1012.4F
SAXON HARBOR     0600   61      CALM  /  5 1013.2
$$

LMZ867-665-643>646-030800-
LAKE MICHIGAN

STATION/POSITION TIME  TEMP    WIND        PRES    WAVE
                       AIR SEA DIR/SP/G            HT/PER
                 (UTC) (F)     (DEG/KT/KT) (MB)    (FT/S)
CHAMBERS ISLAND  0600   59     170/  2/  5 1015.2F
S GREEN BAY BUOY 0630   65 69  200/ 14/ 16 1016.9F
N MID LAKE BUOY  0650   52 47  210/  6/  6 1015.3F   0
NORTHPORT PIER   0600   58     200/  3/  4 1015.2F
SISTER BAY       0614   59     160/  8/ 10   N/A
ALGOMA LAKESHORE 0610             CALM       N/A
KEWAUNEE LAKESHO 0600   54     300/  3/  5 1015.4F
SHEBOYGAN LAKESH 0700   58     260/  4/  4 1016.1F
PORT WASHINGTON  0640   55     280/  3/  3 1016.6F
ATWATER BUOY     0700   60     350/  4/  6 1017.1F
MILWAUKEE LAKESH 0700   59     310/  1/  2   N/A
KENOSHA   LAKESH 0700   60      10/  8/  8 1015.6F
$$

TC  - TEMPERATURE IN CELSIUS
VSB - VISIBILITY IN STATUTE MILES
WCI - WIND CHILL INDEX
HX  - HEAT INDEX




USA.gov is the U.S. government's official web portal to all federal, state and local government web resources and services.